Погода в Эфории-Норде

Румыния     44°03′58″N   28°37′45″E
темп.,
°C
ветер,
м/с
пор.,
м/с
влажн.,
%
обл.,
%
осадки,
мм/ч
давл.,
гПа
погр.,
м
27 февраля, сб
сб2723:00+9ююз68790 0.0 1023101
02:00+9ююз67800 0.0 102188
05:00+9юз56780 0.0 101954
08:00+9зюз44780 0.0 102040
11:00+11ссз56710 0.0 1020106
14:00+10ссв68750 0.0 1020166
17:00+9св578321 0.0 1020178
20:00+8ссв10147860 0.0 1023529
28 февраля, вс
вс2823:00+7с101280100 0.3 1025894
02:00+6с101276100 0.3 1026994
05:00+6с10127099 0.0 10261019
08:00+5с9127557 0.0 1028925
11:00+6с1012698 0.0 10281355
14:00+7с9126318 0.0 10281452
17:00+7с6106350 0.0 10271464
20:00+6с696437 0.0 10281052
1 марта, пн
пн123:00+6ссз58630 0.0 1028697
02:00+5зсз336249 0.0 1028404
05:00+5зсз456297 0.0 1027308
08:00+5ссз556998 0.0 1028644
11:00+4ссз3495100 0.4 1029335
14:00+5с6782100 0.6 1029715
17:00+6ссз778098 0.1 1029759
20:00+6с8107999 0.4 1031935
2 марта, вт
вт223:00+6с7879100 0.3 1032817
02:00+5с7883100 0.4 1032672
05:00+4с788357 0.1 1032635
08:00+4ссз678336 0.1 1033578
11:00+5с467362 0.0 1033794
14:00+6ссз246553 0.0 1032504
17:00+7сз6774100 0.0 1030818
20:00+7зсз697775 0.0 1030434
3 марта, ср
ср323:00+6зсз711775 0.0 1030315
02:00+7сз812763 0.0 1030266
05:00+6сз710770 0.0 1029261
08:00+7ссз610770 0.0 1030347
11:00+8ссз47730 0.0 1031248
14:00+9св23720 0.0 1030192
17:00+9юв22720 0.0 102940
20:00+8ююз45750 0.0 102963